This demonstration page uses our WeatherBlox Daily Observations layout. Learn more.

Left ArrowRight Arrow

Hourly Observations for August 30, 2018

Temp ( °F °C ) Dew Point ( °F °C ) Humidity (%) Winds ( mph kmh ) Pressure ( in mb ) Visibility ( mi km ) Precip ( " mm )
12:51 am 00:51 Clear 85 29.4 74 23.3 70 70 SW 8 13 29.93 1014 10 16 0.00 0.00
1:51 am 01:51 Clear 83 28.3 75 23.9 77 77 SW 8 13 29.93 1013 10 16 0.00 0.00
2:51 am 02:51 Clear 83 28.3 75 23.9 77 77 SW 7 11 29.92 1013 10 16 0.00 0.00
3:51 am 03:51 Clear 82 27.8 75 23.9 79 79 W 8 13 29.92 1013 10 16 0.00 0.00
4:51 am 04:51 Clear 81 27.2 75 23.9 82 82 WSW 5 7 29.93 1013 10 16 0.00 0.00
5:51 am 05:51 Clear 79 26.1 74 23.3 85 85 WNW 6 9 29.93 1014 10 16 0.00 0.00
6:51 am 06:51 Sunny 80 26.7 73 22.8 79 79 NW 7 11 29.96 1015 10 16 0.00 0.00
7:51 am 07:51 Sunny 81 27.2 71 21.7 72 72 NW 7 11 29.98 1015 10 16 0.00 0.00
8:51 am 08:51 Sunny 83 28.3 71 21.7 67 67 NW 12 19 29.99 1016 10 16 0.00 0.00
9:51 am 09:51 Sunny 85 29.4 69 20.6 59 59 NNW 12 19 30.01 1016 10 16 0.00 0.00
10:51 am 10:51 Sunny 86 30 69 20.6 57 57 NNW 13 20 30.01 1016 10 16 0.00 0.00
11:51 am 11:51 Mostly Sunny 86 30 69 20.6 57 57 NNW 12 19 30.02 1017 10 16 0.00 0.00
12:51 pm 12:51 Partly Cloudy 89 31.7 70 21.1 53 53 N 3 6 30.02 1017 10 16 0.00 0.00
1:51 pm 13:51 Partly Cloudy 89 31.7 70 21.1 53 53 NW 10 17 30.02 1017 10 16 0.00 0.00
2:51 pm 14:51 Partly Cloudy 91 32.8 69 20.6 49 49 NNW 9 15 30.01 1016 10 16 0.00 0.00
3:51 pm 15:51 Partly Cloudy 90 32.2 69 20.6 50 50 NE 8 13 30.01 1016 10 16 0.00 0.00
4:51 pm 16:51 Mostly Cloudy 89 31.7 68 20 50 50 NE 9 15 30.01 1016 10 16 0.00 0.00
5:51 pm 17:51 Mostly Sunny 88 31.1 64 17.8 45 45 N 8 13 30.01 1016 10 16 0.00 0.00
6:51 pm 18:51 Sunny 86 30 62 16.7 45 45 NNW 12 19 30.02 1017 10 16 0.00 0.00
7:51 pm 19:51 Clear 84 28.9 63 17.2 49 49 NNW 7 11 30.04 1017 10 16 0.00 0.00
8:51 pm 20:51 Clear 83 28.3 64 17.8 53 53 N 7 11 30.07 1018 10 16 0.00 0.00
9:51 pm 21:51 Clear 80 26.7 64 17.8 58 58 N 6 9 30.09 1019 10 16 0.00 0.00
10:51 pm 22:51 Mostly Clear 79 26.1 68 20 69 69 NNE 6 9 30.11 1020 10 16 0.00 0.00
11:51 pm 23:51 Clear 78 25.6 65 18.3 64 64 NNE 5 7 30.12 1020 10 16 0.00 0.00

Powered by Vaisala Xweather